Dewpoint
65 63 63 63 62 62 62 63 62 60 58 56 51 53 57 57 57 60 61 62 63 64 63 62 61 61 61 59 59 61 60 59 59 58 57 56 54 53 52 53 53 52 52
65 63 62 62 60 60 61 61 61 60 57 55 51 51 52 56 57 59 60 61 62 62 63 62 61 59 58 57 56 60 60 58 58 57 56 55 53 52 53 52 52 52 51
64 63 62 61 60 59 59 61 60 59 58 55 51 51 54 55 57 58 58 59 59 61 61 60 56 54 54 57 55 59 59 57 57 56 54 53 52 52 52 51 51 51 51
64 62 61 60 59 58 59 60 60 58 57 54 51 51 54 57 57 57 57 57 56 57 56 55 56 55 58 56 56 60 58 57 57 54 52 51 51 51 52 51 50 50 50
63 62 61 60 58 58 58 59 60 58 55 53 51 51 54 56 57 57 56 56 55 55 55 56 58 59 57 55 58 59 57 56 55 54 52 50 51 51 51 50 50 50 49
63 62 61 59 58 57 57 57 58 58 56 53 51 51 53 55 56 56 56 56 55 55 56 58 58 58 57 57 61 59 56 55 54 53 51 51 51 51 51 49 49 49 48
62 61 60 59 58 57 57 57 57 57 54 52 51 52 52 55 56 56 56 56 55 56 56 58 59 58 58 59 60 59 56 55 54 53 52 50 50 50 50 49 49 48 47
61 61 60 59 58 57 57 57 57 56 54 52 50 50 50 52 53 54 55 55 55 56 56 57 58 58 57 57 58 59 56 55 53 53 51 51 50 50 50 49 48 47 47
62 61 60 59 58 58 57 57 58 56 54 52 51 49 48 47 51 51 53 54 55 55 55 56 57 57 57 57 58 58 57 55 54 53 52 51 50 49 49 48 48 47 46
61 61 60 59 58 58 57 57 58 57 55 52 51 50 50 49 49 48 50 51 52 53 53 54 55 56 56 56 56 56 55 54 53 53 53 51 50 49 49 48 48 47 46
60 60 60 59 58 58 58 57 57 57 57 54 52 50 49 48 48 48 48 50 50 51 52 53 54 54 54 54 54 54 54 54 53 52 53 51 50 50 49 48 47 46 46
57 59 60 60 59 58 58 58 57 56 56 55 54 53 49 48 47 47 47 49 49 50 50 51 52 53 52 52 53 53 53 54 53 52 53 52 51 49 49 48 47 46 45
55 57 58 59 59 58 58 58 57 56 56 55 54 54 53 51 49 48 48 48 48 48 49 50 50 51 51 51 51 51 51 53 54 52 52 53 52 50 50 48 47 46 45
54 56 57 58 58 58 58 58 57 57 57 56 55 55 54 53 53 52 50 47 46 47 48 48 49 50 50 49 50 50 50 52 53 54 51 52 53 52 51 50 48 46 45
53 55 56 56 56 56 57 57 57 57 57 56 56 56 55 55 53 51 50 49 47 45 46 47 47 49 50 49 48 49 49 49 52 53 53 52 52 52 52 52 50 48 45
42 54 55 55 56 56 56 56 56 56 56 56 55 55 54 53 52 51 50 48 48 47 45 47 47 47 48 49 48 47 47 48 49 51 52 52 52 51 51 52 51 48 46
38 47 55 54 54 55 55 55 54 55 54 55 55 55 54 54 53 53 52 49 48 47 46 46 47 46 46 47 47 46 45 45 46 49 51 51 51 51 50 51 51 49 46
35 41 47 53 54 54 54 54 54 54 54 53 54 54 54 54 53 53 52 51 49 48 47 46 46 45 45 45 47 45 44 43 44 44 47 50 50 50 49 49 51 49 46
33 37 39 46 50 52 53 54 53 53 53 52 52 52 52 53 53 52 52 52 52 51 50 49 48 45 44 41 41 39 40 40 40 41 43 46 49 49 49 48 50 48 46
31 34 35 39 44 46 48 51 52 53 53 52 52 52 52 53 52 52 52 52 51 51 50 49 49 45 43 40 39 39 39 37 38 37 39 40 44 47 48 47 49 47 45
31 31 34 35 39 41 43 44 47 51 52 52 53 53 52 53 53 52 52 52 52 51 50 49 48 43 42 39 40 40 40 40 35 36 36 37 39 43 46 46 47 46 45
30 31 33 33 34 36 40 41 42 44 47 51 51 52 52 52 52 52 53 52 52 51 50 50 49 45 44 42 40 41 40 38 39 34 35 35 37 39 42 43 44 45 44
29 30 32 32 33 33 36 39 41 41 43 45 48 50 50 51 51 51 51 51 51 51 51 50 49 48 47 44 42 41 39 39 40 36 34 34 36 36 39 40 42 44 43
28 28 30 31 32 32 34 37 40 40 41 42 43 45 48 50 50 50 50 50 49 49 49 50 50 50 50 49 45 44 43 41 38 34 34 35 35 35 37 39 41 43 42
25 28 29 29 31 31 33 36 39 40 39 40 41 43 44 46 49 50 49 49 49 49 50 50 50 49 50 50 49 45 42 40 38 36 33 34 34 34 35 36 37 41 42
22 23 24 27 30 31 33 34 38 39 39 39 40 41 42 43 45 47 48 47 46 47 48 48 48 48 48 49 49 47 44 40 39 34 34 34 32 32 33 32 34 37 40
Wind_Speed
16 14 13 13 14 14 14 15 15 14 14 11 10 14 11 9 8 8 9 13 15 15 16 16 14 13 12 11 12 10 14 13 8 9 12 11 11 9 9 9 8 9 10
16 17 15 14 14 15 14 14 16 16 15 11 11 12 12 10 10 10 10 12 16 14 17 17 15 12 9 6 9 9 13 12 10 8 9 10 10 9 9 8 8 8 8
19 18 16 16 15 12 15 12 12 13 14 9 12 12 10 12 12 12 10 7 7 9 11 13 10 8 7 10 10 14 15 12 11 10 8 8 8 8 7 7 7 7 7
19 18 17 17 15 14 15 15 14 14 15 13 13 11 12 11 12 13 10 9 7 8 8 8 10 9 11 12 15 17 15 13 10 9 6 7 8 8 7 6 6 6 6
19 18 18 17 17 15 15 15 14 16 15 15 15 12 12 12 13 12 13 11 12 9 6 5 11 15 17 15 14 17 18 13 9 9 9 8 8 8 7 7 6 6 6
20 19 16 16 19 17 16 14 17 14 14 15 13 11 6 9 11 13 14 12 12 11 8 7 11 13 13 12 15 18 16 14 13 12 10 9 8 7 7 6 6 6 5
22 21 18 18 19 20 20 20 17 18 12 14 15 8 6 4 6 9 10 13 14 11 10 9 11 12 10 11 13 17 15 15 15 14 13 11 9 9 8 7 6 5 4
22 21 21 21 22 19 19 20 20 19 12 19 15 13 7 1 1 3 7 11 13 12 11 10 12 15 13 10 10 11 14 16 16 16 14 12 10 10 9 8 8 7 6
19 23 23 22 23 22 23 23 23 23 21 19 17 10 8 9 6 2 7 7 11 13 12 10 10 10 13 13 15 18 16 15 15 16 15 14 13 12 11 10 9 8 8
21 23 25 24 25 23 24 26 25 22 19 22 11 7 6 11 8 7 5 8 8 10 13 13 12 11 11 13 14 16 19 16 16 16 16 15 14 13 12 11 10 9 8
21 23 23 26 25 24 24 26 26 27 18 17 20 8 8 5 7 5 10 12 7 8 11 11 14 14 11 12 15 16 19 18 18 17 16 16 15 14 13 12 12 11 10
20 24 24 24 25 24 24 24 24 26 26 23 21 15 12 9 10 6 4 11 16 8 11 11 12 14 15 14 16 17 20 20 21 19 19 18 17 16 15 14 13 12 12
19 23 23 21 22 23 22 21 23 23 24 24 26 22 16 11 9 5 3 3 6 5 7 11 14 14 14 16 16 22 24 24 23 23 21 19 19 19 18 17 15 15 14
22 22 22 19 22 23 24 24 22 21 22 22 24 23 22 17 13 13 12 8 3 4 4 6 10 15 15 16 16 18 16 23 24 25 24 23 20 19 20 22 21 19 17
14 21 24 24 23 21 22 23 22 23 21 22 21 23 21 18 15 17 17 15 12 9 15 11 11 14 15 14 16 16 17 21 24 23 24 23 22 22 21 23 23 21 20
22 20 21 21 22 21 21 21 19 19 21 20 18 21 20 16 18 16 16 16 11 12 11 15 16 9 13 13 15 18 20 19 23 26 25 24 23 20 19 23 25 24 22
24 15 20 22 22 20 18 19 18 19 20 19 17 20 21 17 16 14 13 12 14 10 14 9 13 11 11 15 13 16 15 17 15 22 25 25 25 24 21 21 26 26 24
24 21 14 19 19 18 19 19 18 19 20 17 16 17 17 16 17 15 15 16 14 15 13 16 12 12 15 13 10 13 13 13 16 18 24 26 25 26 24 24 27 27 26
21 21 23 7 17 15 17 15 17 16 15 16 17 18 20 19 17 15 15 14 12 12 12 11 13 6 8 4 6 5 10 15 13 17 19 24 27 27 26 24 25 27 28
23 25 24 18 12 15 13 10 11 13 15 14 14 15 17 19 18 18 16 18 17 14 12 14 11 11 8 5 5 9 16 14 19 13 16 18 20 25 23 26 28 28 26
22 25 20 18 17 17 14 12 8 8 12 13 14 16 16 17 18 18 15 15 14 14 14 13 12 10 11 8 11 10 17 11 12 13 13 14 17 18 19 25 24 28 28
16 18 16 21 16 12 15 16 12 5 5 9 13 12 13 17 18 19 18 17 16 16 15 15 13 11 16 15 14 16 14 11 15 14 14 19 15 17 17 19 25 25 27
16 17 15 17 13 12 14 13 13 6 3 0 2 11 13 11 14 14 16 17 18 18 18 15 17 17 15 19 18 19 17 17 19 6 14 13 13 19 16 17 21 23 25
14 16 15 12 11 12 12 11 12 7 4 2 3 6 5 10 12 13 12 13 15 16 16 16 18 16 12 11 20 21 23 18 3 5 9 15 10 15 13 13 19 25 25
12 10 12 11 10 11 13 11 11 7 3 3 4 6 8 8 9 13 14 14 14 15 14 20 20 17 17 17 16 17 13 14 12 11 13 7 7 7 7 10 13 23 23
11 9 13 10 9 8 8 8 8 5 7 6 5 6 8 10 13 14 16 15 15 15 12 12 11 13 16 16 18 20 16 20 15 7 12 15 9 8 5 5 11 14 17
Wind_Direction
180 173 179 177 175 176 176 174 175 174 175 177 162 153 166 168 157 143 150 139 144 142 135 137 139 137 132 137 142 162 150 141 134 116 119 116 109 118 118 110 105 96 95
185 182 180 184 183 181 180 178 181 181 187 180 177 162 176 179 175 172 166 163 153 158 152 155 154 151 144 152 152 184 154 138 138 131 124 120 126 135 129 123 116 110 103
188 185 184 184 188 184 174 174 179 181 185 180 168 179 176 185 180 182 178 181 159 171 178 190 195 193 161 194 186 187 152 145 148 139 130 130 141 136 135 130 119 114 106
190 184 184 189 181 176 177 176 182 186 185 179 172 181 174 172 172 168 172 162 164 182 192 180 188 168 164 197 205 171 148 150 153 153 164 162 157 155 144 127 129 117 113
189 186 188 189 175 175 181 185 182 185 185 178 175 181 170 168 168 161 173 170 174 188 192 207 186 163 181 199 193 168 152 155 161 171 168 179 171 166 155 149 145 135 128
193 188 188 182 173 177 183 187 188 190 186 171 161 177 159 166 172 175 182 175 182 188 190 195 188 190 207 184 172 168 169 162 174 184 182 185 188 180 166 168 159 147 145
193 191 189 183 179 181 184 185 188 188 175 145 132 111 64 65 182 186 185 178 186 190 184 196 184 187 200 202 185 183 178 170 183 188 186 189 194 191 183 182 178 166 155
195 192 189 188 187 184 183 182 187 188 183 175 177 148 153 205 229 187 192 189 192 178 190 200 193 187 195 205 190 183 188 186 186 190 192 192 196 203 198 195 193 189 186
195 193 191 187 187 186 186 184 182 198 184 194 178 164 149 195 162 217 212 202 201 183 195 197 206 201 190 187 175 176 194 195 195 196 197 196 200 209 211 208 207 207 206
205 201 189 186 185 189 188 189 187 197 185 193 190 187 156 143 168 183 225 225 224 215 204 199 208 210 206 186 178 181 190 195 202 208 202 205 205 213 219 219 219 219 220
221 205 193 187 187 189 193 188 193 184 189 192 196 174 151 146 139 142 189 206 231 226 223 212 209 210 208 198 182 187 197 199 205 215 215 212 210 215 222 223 226 227 226
225 214 199 188 186 190 193 190 188 192 188 190 193 180 174 171 176 158 139 187 207 219 212 212 218 215 202 204 190 193 204 203 209 218 221 222 220 220 222 226 225 230 230
220 211 198 186 182 190 189 187 189 192 188 191 189 189 188 190 153 137 112 157 180 187 202 225 224 220 212 201 204 200 205 207 210 220 225 229 231 223 217 225 228 229 232
225 212 199 184 186 193 196 192 191 191 190 193 192 195 192 200 184 187 188 159 162 167 183 217 216 217 218 216 211 209 213 217 214 217 229 231 233 229 219 217 219 220 228
262 204 200 192 186 189 191 192 194 194 191 193 194 194 194 189 191 195 188 189 186 190 215 227 215 218 215 208 217 208 215 221 221 222 227 240 238 232 221 213 215 215 217
341 208 190 179 175 181 184 184 189 191 192 194 190 193 196 191 190 190 189 199 194 198 225 214 221 218 212 217 214 210 220 220 223 223 227 232 241 247 237 216 211 209 211
356 335 178 172 172 173 173 177 177 182 187 186 186 193 192 186 190 197 207 210 205 190 216 222 222 214 210 217 220 215 219 220 224 227 230 230 232 238 239 228 212 206 207
356 351 338 151 150 153 165 169 171 177 177 180 185 191 197 186 187 187 193 210 211 204 205 219 217 215 215 220 225 217 219 220 224 231 230 233 231 232 231 226 215 205 205
359 1 6 26 120 144 150 159 169 170 178 183 190 193 203 197 195 189 187 195 206 207 211 212 225 206 205 182 211 217 224 232 234 238 233 233 234 230 230 228 215 208 206
356 4 1 344 67 89 93 135 160 166 177 188 190 199 195 190 189 196 197 199 198 206 210 213 215 219 218 207 186 223 240 226 238 225 230 232 237 237 231 224 218 208 206
353 7 349 345 22 62 57 65 89 164 185 187 191 198 201 197 197 203 192 194 196 205 215 213 213 200 199 199 214 224 235 238 242 223 231 231 227 227 225 225 221 210 205
354 350 346 7 6 38 44 55 52 78 99 191 199 203 204 203 199 196 199 199 197 205 222 221 221 210 213 214 219 223 231 231 256 211 218 241 208 225 224 217 221 216 208
351 355 336 356 345 18 20 38 41 49 63 122 197 210 210 208 208 211 217 220 222 215 221 224 238 239 237 213 212 224 221 226 242 217 198 245 198 224 226 229 221 210 202
338 344 333 318 341 8 356 29 33 46 29 350 291 279 243 217 219 216 223 230 234 236 235 239 244 250 249 216 214 223 225 232 227 185 185 233 199 225 214 212 212 212 204
325 314 314 306 333 353 346 17 25 23 8 337 310 294 276 269 247 224 224 234 232 233 225 232 240 241 242 243 218 215 216 211 231 222 201 230 201 217 216 211 214 215 216
299 306 306 316 345 336 344 9 20 23 341 321 299 280 273 267 266 250 232 230 235 235 225 233 244 253 256 256 246 216 214 214 222 207 210 201 184 171 243 222 209 210 217